Location: Newark
(47.5833°N, 8.1500°E)
Time: 16:50:02
(UTC+00:00)

Transit 2A Rocket - All Passes

Search period start: 21 October 2020 00:00
Search period end: 31 October 2020 00:00
Orbit: 586 x 917 km, 66.7° (Epoch: 20 October)

Date Brightness Start Highest point End Pass type
(mag) Time Alt. Az. Time Alt. Az. Time Alt. Az.
21 Oct - 09:01:55 10° ESE 09:03:53 12° E 09:05:52 10° E daylight
21 Oct - 10:39:27 10° SSW 10:45:30 64° ESE 10:51:24 10° NE daylight
21 Oct - 12:23:05 10° WSW 12:28:33 33° NW 12:33:49 10° NNE daylight
21 Oct - 14:10:10 10° NW 14:12:59 13° NNW 14:15:45 10° N daylight
21 Oct - 15:56:33 10° N 15:58:16 11° N 15:59:57 10° NNE daylight
21 Oct - 17:38:38 10° NNW 17:43:03 24° NE 17:47:09 10° E visible
21 Oct - 19:20:59 10° NW 19:26:24 83° WSW 19:31:15 10° SSE visible
21 Oct - 21:05:56 10° WNW 21:07:57 12° WSW 21:09:54 10° SW visible
22 Oct - 09:57:22 10° S 10:03:02 41° ESE 10:08:35 10° NE daylight
22 Oct - 11:39:49 10° WSW 11:45:41 46° NW 11:51:22 10° NNE daylight
22 Oct - 13:26:06 10° WNW 13:29:46 16° NNW 13:33:19 10° NNE daylight
22 Oct - 15:13:44 10° N 15:14:56 11° N 15:16:07 10° NNE daylight
22 Oct - 16:56:14 10° NNW 16:59:59 18° NNE 17:03:30 10° ENE visible
22 Oct - 18:38:23 10° NNW 18:43:47 63° NE 18:48:37 10° SE visible
22 Oct - 20:21:55 10° WNW 20:25:48 21° WSW 20:29:25 10° SSW visible
23 Oct - 09:15:44 10° SSE 09:20:41 26° ESE 09:25:34 10° NE daylight
23 Oct - 10:56:51 10° SW 11:02:57 67° NW 11:08:51 10° NNE daylight
23 Oct - 12:42:12 10° WNW 12:46:38 21° NNW 12:50:56 10° NNE daylight
23 Oct - 14:30:09 10° NNW 14:31:35 11° N 14:33:00 10° N daylight
23 Oct - 16:13:50 10° NNW 16:16:48 14° NNE 16:19:38 10° NE daylight
23 Oct - 17:55:52 10° NNW 18:01:01 41° NE 18:05:41 10° ESE visible
23 Oct - 19:38:46 10° NW 19:43:32 36° WSW 19:47:55 10° S visible
24 Oct - 08:34:49 10° SE 08:38:27 17° ESE 08:42:03 10° ENE daylight
24 Oct - 10:14:11 10° SSW 10:20:19 83° ESE 10:26:16 10° NE daylight
24 Oct - 11:58:30 10° W 12:03:36 27° NW 12:08:32 10° NNE daylight
24 Oct - 13:46:03 10° NW 13:48:15 12° NNW 13:50:25 10° N daylight
24 Oct - 15:31:25 10° N 15:33:32 12° NNE 15:35:37 10° NE daylight
24 Oct - 17:13:24 10° NNW 17:18:07 28° NE 17:22:28 10° E visible
24 Oct - 18:55:55 10° NW 19:01:09 60° WSW 19:05:52 10° SSE visible
25 Oct - 09:31:51 10° SSW 09:37:47 55° ESE 09:43:34 10° NE daylight
25 Oct - 11:15:05 10° WSW 11:20:41 37° NW 11:26:05 10° NNE daylight
25 Oct - 13:01:55 10° NW 13:05:00 14° NNW 13:07:59 10° NNE daylight
25 Oct - 14:48:53 10° N 14:50:14 11° N 14:51:34 10° NNE daylight
25 Oct - 16:30:59 10° NNW 16:35:07 21° NNE 16:38:58 10° E daylight
25 Oct - 18:13:13 10° NNW 18:18:37 84° NE 18:23:27 10° SE visible
25 Oct - 19:57:31 10° WNW 20:00:20 15° WSW 20:03:01 10° SW visible
26 Oct - 08:49:54 10° S 08:55:22 35° ESE 09:00:42 10° NE daylight
26 Oct - 10:31:55 10° SW 10:37:52 53° NW 10:43:36 10° NNE daylight
26 Oct - 12:17:54 10° WNW 12:21:49 18° NNW 12:25:35 10° NNE daylight
26 Oct - 14:05:51 10° NNW 14:06:54 10° N 14:07:56 10° N daylight
26 Oct - 15:48:35 10° NNW 15:52:00 16° NNE 15:55:14 10° ENE daylight
26 Oct - 17:30:39 10° NNW 17:35:57 53° NE 17:40:43 10° SE visible
26 Oct - 19:13:56 10° NW 19:18:08 25° WSW 19:22:02 10° SSW visible
27 Oct - 08:08:28 10° SSE 08:13:03 22° ESE 08:17:33 10° ENE daylight
27 Oct - 09:49:03 10° SW 09:55:10 77° NW 10:01:05 10° NNE daylight
27 Oct - 11:34:03 10° W 11:38:42 22° NNW 11:43:12 10° NNE daylight
27 Oct - 13:21:59 10° NNW 13:23:34 11° N 13:25:06 10° N daylight
27 Oct - 15:06:12 10° N 15:08:48 13° NNE 15:11:18 10° NE daylight
27 Oct - 16:48:10 10° NNW 16:53:08 35° NE 16:57:40 10° ESE visible
27 Oct - 18:30:54 10° NW 18:35:50 42° WSW 18:40:19 10° S visible
28 Oct - 07:27:57 10° SE 07:30:50 14° ESE 07:33:41 10° ENE daylight
28 Oct - 09:06:29 10° SSW 09:12:34 72° ESE 09:18:28 10° NE daylight
28 Oct - 10:50:27 10° W 10:55:43 30° NW 11:00:47 10° NNE daylight
28 Oct - 12:37:49 10° NW 12:40:15 13° NNW 12:42:38 10° N daylight
28 Oct - 14:23:47 10° N 14:25:31 11° N 14:27:13 10° NNE daylight
28 Oct - 16:05:43 10° NNW 16:10:12 25° NE 16:14:21 10° E daylight
28 Oct - 17:48:07 10° NW 17:53:24 72° WSW 17:58:09 10° SSE visible
29 Oct - 08:24:16 10° S 08:30:05 47° ESE 08:35:43 10° NE daylight
29 Oct - 10:07:06 10° WSW 10:12:51 41° NW 10:18:21 10° NNE daylight
29 Oct - 11:53:41 10° WNW 11:57:01 15° NNW 12:00:14 10° NNE daylight
29 Oct - 13:41:13 10° N 13:42:12 10° N 13:43:10 10° NNE daylight
29 Oct - 15:23:19 10° NNW 15:27:10 19° NNE 15:30:46 10° ENE daylight
29 Oct - 17:05:29 10° NNW 17:10:49 72° NE 17:15:36 10° SE visible
29 Oct - 18:49:20 10° WNW 18:52:41 18° WSW 18:55:52 10° SSW visible
30 Oct - 07:42:30 10° S 07:47:41 30° ESE 07:52:46 10° NE daylight
30 Oct - 09:24:02 10° SW 09:30:04 60° NW 09:35:52 10° NNE daylight
30 Oct - 11:09:43 10° WNW 11:13:51 19° NNW 11:17:51 10° NNE daylight
30 Oct - 12:57:52 10° NNW 12:58:51 10° N 12:59:50 10° N daylight
30 Oct - 14:40:56 10° NNW 14:44:01 15° NNE 14:46:57 10° ENE daylight
30 Oct - 16:22:56 10° NNW 16:28:05 46° NE 16:32:45 10° ESE daylight
30 Oct - 18:06:00 10° NW 18:10:28 30° WSW 18:14:34 10° S visible
